Torna al catalogo

COSMOS 1827

AttivoNavigazionePO
NORAD 17582·PAYLOAD·🇷🇺 Russia

Lanciato Mar 13, 1987 da Plesetsk Cosmodrome

Loading…

Prossimi Passaggi (prossime 24 ore)

TLE

AggiornatoSource: Space-Track

Epoca: Sep 14, 2026, 22:34 UTC

1 17582U 87026A   26257.94094165  .00000035  00000-0  13087-3 0  9996
2 17582  82.5698 134.4813 0011695 316.4250  43.5919 12.65019730823996

Traccia COSMOS 1827 in tempo reale con AllMySat

Download on the App Store